FW3936 Weather Reports


Display with metric or nautical units.
time (UTC)temp
F
wind
direction
speed
MPH
gust
MPH
rain 1hr
in
rain 24hr
in
rain mn
in
humidity
%
barometer
mb
20260510154512 81 107 2.0 9.0 0.00 0.00 0.00 67 1014.2
20260510153008 80 117 2.0 7.0 0.00 0.00 0.00 68 1014.1
20260510151505 80 100 3.0 8.0 0.00 0.00 0.00 68 1014.1
20260510144557 78 140 0.0 5.0 0.00 0.00 0.00 71 1013.8
20260510143103 76 145 1.0 3.0 0.00 0.00 0.00 72 1013.6
20260510141552 75 138 0.0 6.0 0.00 0.00 0.00 73 1013.6
20260510140045 74 140 1.0 5.0 0.00 0.00 0.00 73 1013.4
20260510134544 73 157 0.0 3.0 0.00 0.00 0.00 74 1013.2
20260510133038 71 277 0.0 3.0 0.00 0.00 0.00 74 1013.1
20260510131535 70 278 0.0 2.0 0.00 0.00 0.00 74 1013.0
20260510130033 69 279 0.0 4.0 0.00 0.00 0.00 73 1012.7
20260510124532 68 360 0.0 2.0 0.00 0.00 0.00 73 1012.5
20260510123029 67 342 0.0 0.0 0.00 0.00 0.00 73 1012.4
20260510121527 67 104 0.0 0.0 0.00 0.00 0.00 74 1012.4
20260510120025 67 104 0.0 0.0 0.00 0.00 0.00 74 1012.3
20260510114529 67 104 0.0 0.0 0.00 0.00 0.00 75 1012.3
20260510113024 67 104 0.0 0.0 0.00 0.00 0.00 75 1012.2
20260510111526 66 104 0.0 0.0 0.00 0.00 0.00 75 1012.3
20260510110022 67 104 0.0 2.0 0.00 0.00 0.00 75 1012.2
20260510104522 67 104 0.0 1.0 0.00 0.00 0.00 75 1012.0
20260510103021 67 103 0.0 2.0 0.00 0.00 0.00 75 1012.2
20260510101520 67 103 0.0 3.0 0.00 0.00 0.00 75 1012.2
20260510100019 67 102 0.0 0.0 0.00 0.00 0.00 75 1012.3
20260510094527 67 102 0.0 0.0 0.00 0.00 0.00 75 1012.4
20260510093020 67 102 0.0 0.0 0.00 0.00 0.00 75 1012.3
20260510091517 68 102 0.0 0.0 0.00 0.00 0.00 75 1012.2
20260510090017 68 102 0.0 0.0 0.00 0.00 0.00 75 1012.2
20260510084512 69 102 0.0 0.0 0.00 0.00 0.00 75 1012.2
20260510083009 69 102 0.0 0.0 0.00 0.00 0.00 74 1012.1
20260510081521 69 102 0.0 0.0 0.00 0.00 0.00 74 1012.0
20260510080012 70 102 0.0 0.0 0.00 0.00 0.00 74 1011.9
20260510074505 70 102 0.0 0.0 0.00 0.00 0.00 74 1012.0
20260510073004 70 102 0.0 0.0 0.00 0.00 0.00 73 1012.1
20260510071502 71 102 0.0 2.0 0.00 0.00 0.00 73 1012.1
20260510070001 71 102 0.0 1.0 0.00 0.00 0.00 72 1012.0
20260510064605 72 102 0.0 3.0 0.00 0.00 0.00 72 1012.1
20260510063059 72 102 0.0 2.0 0.00 0.00 0.00 73 1012.0
20260510061558 71 102 0.0 1.0 0.00 0.00 0.00 74 1012.1
20260510060056 71 102 0.0 3.0 0.00 0.00 0.00 74 1012.3
20260510054553 71 102 0.0 2.0 0.00 0.00 0.00 74 1012.1
20260510053051 71 102 0.0 3.0 0.00 0.00 0.00 74 1011.9
20260510051549 71 102 1.0 3.0 0.00 0.00 0.00 74 1012.0
20260510050046 71 102 0.0 0.0 0.00 0.00 0.00 74 1011.9
20260510044547 71 102 0.0 0.0 0.00 0.00 0.00 74 1011.8
20260510043052 71 102 0.0 0.0 0.00 0.00 0.00 73 1011.7
20260510041544 72 102 0.0 0.0 0.00 0.00 0.00 74 1011.5
20260510040043 72 102 0.0 0.0 0.00 0.00 0.00 73 1011.5
20260510034542 72 102 0.0 2.0 0.00 0.00 0.00 72 1011.4
20260510033051 73 102 1.0 3.0 0.00 0.00 0.00 72 1011.2
20260510031547 73 102 1.0 2.0 0.00 0.00 0.00 71 1011.2
20260510030040 74 102 0.0 1.0 0.00 0.00 0.00 70 1011.0
20260510024544 74 102 0.0 3.0 0.00 0.00 0.00 68 1010.9
20260510023039 75 102 0.0 2.0 0.00 0.00 0.00 67 1010.7
20260510021538 75 102 1.0 3.0 0.00 0.00 0.00 66 1010.7
20260510020039 76 102 1.0 5.0 0.00 0.00 0.00 65 1010.5
20260510014537 77 102 1.0 5.0 0.00 0.00 0.00 65 1010.3
20260510013036 77 100 3.0 7.0 0.00 0.00 0.00 65 1010.0
20260510011547 78 96 3.0 5.0 0.00 0.00 0.00 63 1009.8
20260510010036 79 96 2.0 6.0 0.00 0.00 0.00 60 1009.6
20260510004537 80 96 1.0 5.0 0.00 0.00 0.00 56 1009.4
20260510003057 81 98 2.0 10.0 0.00 0.00 0.00 56 1009.3
20260510001539 82 96 1.0 3.0 0.00 0.00 0.00 63 1009.0
20260510000037 82 96 0.0 0.0 0.00 0.00 0.00 61 1008.9
20260509234536 83 96 0.0 0.0 0.00 0.00 0.00 59 1008.8
20260509233032 84 96 1.0 3.0 0.00 0.00 0.00 55 1008.9
20260509231540 85 119 2.0 10.0 0.00 0.00 0.00 54 1008.8
20260509230034 85 199 1.0 4.0 0.00 0.00 0.00 55 1008.8
20260509224533 86 200 1.0 4.0 0.00 0.00 0.00 52 1008.8
20260509223030 87 223 0.0 0.0 0.00 0.00 0.00 52 1008.8
20260509221529 86 223 0.0 0.0 0.00 0.00 0.00 56 1008.8
20260509220030 87 223 0.0 2.0 0.00 0.00 0.00 55 1008.8
20260509214527 87 223 0.0 3.0 0.00 0.00 0.00 50 1008.9
20260509213024 89 223 0.0 3.0 0.00 0.00 0.00 47 1008.7
20260509211523 90 223 0.0 5.0 0.00 0.00 0.00 44 1008.9
20260509210023 89 220 0.0 3.0 0.00 0.00 0.00 48 1009.2
20260509204518 90 224 0.0 4.0 0.00 0.00 0.00 50 1009.4
20260509203020 91 261 0.0 5.0 0.00 0.00 0.00 48 1009.6
20260509201513 92 238 0.0 5.0 0.00 0.00 0.00 47 1009.7
20260509200009 90 159 2.0 9.0 0.00 0.00 0.00 47 1010.0
20260509194511 90 143 2.0 8.0 0.00 0.00 0.00 48 1010.3
20260509193005 88 267 1.0 6.0 0.00 0.00 0.00 52 1010.5
20260509191504 89 168 0.0 3.0 0.00 0.00 0.00 50 1010.9
20260509190001 90 167 1.0 5.0 0.00 0.00 0.00 50 1011.0
20260509184602 89 273 0.0 5.0 0.00 0.00 0.00 53 1011.0
20260509183136 89 271 0.0 7.0 0.00 0.00 0.00 54 1011.2
20260509181609 87 228 1.0 4.0 0.00 0.00 0.00 57 1011.4
20260509180051 87 170 0.0 2.0 0.00 0.00 0.00 57 1011.5
20260509174550 87 169 2.0 7.0 0.00 0.00 0.00 56 1011.8
20260509173045 86 265 0.0 7.0 0.00 0.00 0.00 58 1011.8
20260509171544 85 198 1.0 4.0 0.00 0.00 0.00 62 1011.8
20260509170038 84 268 1.0 6.0 0.00 0.00 0.00 64 1012.0
20260509164534 82 165 0.0 5.0 0.00 0.00 0.00 67 1012.0
20260509163033 81 267 1.0 5.0 0.00 0.00 0.00 71 1012.1
20260509161529 79 146 1.0 3.0 0.00 0.00 0.00 72 1012.3
20260509160025 78 136 0.0 5.0 0.00 0.00 0.00 72 1012.1